Dewpoint
53 48 47 42 29 30 26 24 27 22 28 34 26 27 28 29 31 25 48 57 60 61 65 68 70 71 71 71 71 70 70 71 70 70 70 69 69 68 67 67 67 68 68 67 65 64 64 64 64
46 46 43 37 31 21 16 29 25 23 23 28 28 29 32 27 39 44 51 58 61 63 65 66 69 71 71 71 71 71 71 70 69 68 67 67 68 67 65 65 64 64 65 64 62 60 60 60 60
44 42 39 33 28 21 22 22 21 23 26 26 34 37 34 27 39 45 52 57 61 62 64 65 69 70 70 71 71 71 71 70 69 67 66 64 64 63 63 62 62 63 62 60 59 57 56 56 56
40 35 31 31 29 30 25 25 20 24 30 26 29 23 25 31 38 43 51 59 60 61 62 65 68 69 69 68 68 68 68 68 65 63 64 64 63 63 60 59 58 59 58 57 56 55 54 53 53
36 32 24 25 24 24 25 25 20 23 23 24 29 26 25 30 39 45 54 58 59 58 60 63 68 68 67 68 67 67 66 66 64 63 64 63 62 59 58 56 56 56 55 54 53 53 54 54 52
31 30 25 21 22 24 25 22 24 24 23 23 31 30 23 34 40 45 55 56 57 57 58 61 65 67 65 67 67 67 66 65 65 64 62 61 58 56 55 54 54 54 54 53 53 53 52 51 51
31 29 27 24 23 24 24 24 23 23 25 22 30 30 25 29 37 48 53 53 54 56 57 58 61 62 63 65 66 65 65 64 64 63 60 58 56 55 54 53 53 53 53 53 50 50 49 50 48
34 29 27 25 21 20 24 22 20 21 20 25 25 21 23 35 42 49 50 51 52 54 55 56 57 59 59 60 63 64 64 64 62 61 59 58 56 55 54 55 54 53 53 50 49 47 47 47 46
30 21 19 19 20 20 24 24 30 29 27 25 25 25 26 35 44 47 46 48 49 51 53 53 54 55 56 56 58 61 62 61 59 58 56 52 46 47 47 49 54 51 50 49 46 44 44 43 43
31 21 18 19 21 21 21 22 23 31 22 20 22 24 31 34 41 45 45 48 48 50 51 52 52 53 53 54 54 54 55 54 52 50 48 43 42 43 45 49 52 50 49 45 44 42 40 34 30
31 26 25 24 25 27 24 23 22 22 21 21 20 21 27 32 36 43 44 47 48 50 51 51 51 50 50 50 50 50 50 49 48 46 42 39 38 43 43 41 39 38 39 34 33 30 29 28 29
32 31 28 28 27 28 25 25 23 21 24 22 22 22 26 30 33 37 40 42 45 47 49 50 50 49 48 48 49 49 47 45 44 42 39 36 37 39 38 34 31 29 30 28 29 29 28 27 27
30 30 30 30 30 29 29 28 27 24 24 25 24 23 23 27 30 32 35 37 39 43 47 48 48 49 48 46 47 46 46 44 42 39 39 36 37 35 34 32 30 28 28 27 26 26 26 25 25
26 27 27 27 27 28 27 24 31 24 25 23 24 25 24 25 27 29 30 30 31 34 42 46 46 48 47 45 45 46 45 42 39 37 37 35 36 34 33 31 29 27 27 26 26 24 23 24 24
27 24 22 23 24 26 27 24 24 24 24 22 21 22 24 26 26 27 28 29 29 29 31 42 45 46 45 45 43 44 43 40 38 37 36 35 34 32 31 31 28 26 26 26 26 24 23 22 22
20 25 18 16 25 22 20 14 14 15 20 20 21 21 22 23 26 26 27 28 29 29 27 31 40 43 43 43 40 40 40 39 37 36 35 35 33 31 30 30 28 27 26 25 24 22 21 21 21
20 17 16 18 20 20 22 18 18 21 22 21 21 21 21 21 22 23 26 27 28 28 28 27 33 39 41 41 38 37 36 37 36 35 34 34 32 31 30 29 28 27 26 24 23 22 19 18 20
15 17 18 16 15 20 21 22 21 23 22 22 21 21 20 21 22 21 23 26 27 28 28 27 29 33 37 38 35 34 34 34 34 33 32 32 32 30 29 28 27 27 25 24 22 21 25 23 20
15 14 14 16 17 18 16 16 17 18 21 19 18 20 21 22 23 23 23 24 27 27 27 26 27 29 33 34 33 32 32 33 33 32 31 30 30 29 28 27 26 26 25 24 20 22 21 22 22
21 19 18 19 20 19 19 18 18 19 19 18 19 19 19 19 19 20 21 24 27 26 26 27 27 28 31 32 32 31 32 31 31 32 29 29 29 28 27 26 25 25 24 23 22 23 23 23 22
20 19 17 17 20 20 19 17 19 19 20 20 20 20 20 20 20 20 21 23 25 27 26 27 27 27 29 31 30 27 26 26 28 29 28 27 28 28 26 25 25 24 24 22 22 22 21 20 22
17 20 20 20 19 16 18 12 13 15 14 16 17 17 18 19 20 21 22 23 24 25 27 28 28 27 28 30 29 27 27 26 27 28 30 28 27 26 26 25 25 24 24 23 22 22 20 21 18
20 21 20 19 20 20 19 15 18 15 14 14 15 17 18 18 19 18 18 19 24 25 27 28 27 27 28 29 29 28 27 27 26 27 28 28 26 26 25 25 24 23 23 23 22 23 21 19 21
22 22 21 22 19 17 17 14 12 13 12 14 13 14 15 16 18 19 20 21 23 26 26 26 26 27 28 28 28 27 26 25 25 25 27 27 26 25 24 24 23 22 23 22 22 23 22 21 21
21 18 15 14 16 15 15 16 12 18 14 14 15 14 16 19 20 20 22 24 24 24 24 25 26 26 27 28 28 27 26 25 24 24 25 25 25 24 23 23 22 22 22 22 23 23 22 22 21
21 19 19 13 14 17 18 16 19 16 16 16 15 17 18 20 21 22 24 24 25 24 24 23 26 25 26 27 27 27 26 26 24 24 24 24 24 24 23 22 21 21 22 22 23 23 23 22 22
17 18 20 21 19 17 17 17 18 20 18 16 16 18 20 21 22 21 23 24 24 24 23 23 24 26 25 26 26 26 25 25 24 23 24 24 23 22 22 21 21 21 21 21 22 22 21 21 21
19 20 19 21 17 15 15 15 16 19 19 20 19 19 23 26 26 25 22 24 24 25 23 23 24 25 25 26 26 25 25 25 24 23 23 23 23 22 22 21 20 20 20 21 21 21 21 20 20
25 21 20 19 23 21 20 19 20 20 22 21 19 22 26 27 26 24 27 28 28 26 24 24 23 24 25 25 26 25 25 24 24 23 23 23 23 22 22 21 20 19 20 20 20 19 19 19 19
23 26 24 21 20 20 20 21 27 24 23 24 25 28 30 31 30 29 29 30 29 30 32 30 26 25 25 25 25 25 25 24 23 23 22 23 22 22 21 20 20 19 18 19 19 19 19 19 18
Lifted_Index
8 7 6 6 5 4 4 4 5 5 6 6 7 6 6 6 5 5 5 4 3 2 0 -2 -3 -4 -4 -4 -4 -4 -4 -4 -3 -3 -2 -2 -2 -1 -1 -0 -0 -1 -0 1 2 3 3 3 3
8 7 6 6 5 4 4 5 5 6 6 7 7 7 6 6 6 5 5 4 3 2 0 -1 -3 -3 -4 -4 -4 -4 -4 -4 -3 -2 -1 -1 -1 -0 1 1 1 1 1 2 3 5 5 5 5
8 8 7 6 4 4 4 5 6 6 6 7 7 7 6 6 6 6 5 4 3 2 0 -1 -2 -3 -3 -3 -3 -3 -3 -3 -2 -1 -0 0 1 2 3 3 3 3 4 5 6 7 7 8 8
8 8 7 5 4 4 5 6 6 6 6 7 7 7 7 7 7 7 6 4 3 2 1 -0 -1 -2 -2 -2 -2 -2 -2 -1 -0 1 1 1 2 3 5 6 6 6 7 7 8 9 9 9 10
9 8 5 4 4 5 6 6 6 6 7 7 7 7 7 7 8 7 6 4 3 2 1 0 -0 -1 -1 -1 -1 -0 0 1 1 2 2 3 4 5 7 7 8 8 9 9 10 10 10 11 11
8 7 4 3 3 5 6 6 6 6 7 7 7 7 7 8 8 8 7 5 4 3 2 2 1 0 0 0 0 1 1 1 2 3 4 5 7 8 8 9 9 9 10 10 11 11 12 12 13
7 6 4 3 3 4 5 6 6 6 7 7 7 6 7 8 8 8 7 6 5 4 4 3 2 2 1 1 1 2 2 2 3 4 6 7 9 9 10 10 10 10 11 11 12 13 13 14 14
7 6 4 3 3 4 5 6 6 7 7 7 7 7 7 8 8 8 7 6 6 5 5 4 4 3 3 2 2 2 3 4 5 6 8 9 10 11 11 11 11 11 12 13 14 15 15 16 16
7 5 4 4 4 5 6 6 6 7 6 6 7 7 8 8 8 8 8 7 7 6 6 6 5 4 4 4 4 4 4 5 7 8 10 11 13 13 13 13 12 12 13 14 16 16 16 16 17
6 5 4 5 5 6 6 6 6 6 5 5 6 7 8 8 8 8 8 8 7 7 7 7 6 6 6 6 5 5 6 7 9 10 12 13 15 15 15 14 14 14 15 16 17 17 17 17 17
6 5 5 5 6 6 6 5 5 5 4 4 5 6 7 7 7 7 7 8 8 8 8 7 7 7 7 7 7 7 8 9 10 12 13 15 15 15 15 15 16 16 17 17 17 17 17 17 17
6 6 5 6 6 6 5 5 5 5 4 4 4 5 6 6 6 6 7 7 8 8 8 8 8 8 8 8 9 9 10 10 12 13 15 15 16 15 15 15 16 17 17 17 17 17 17 17 17
6 6 6 6 6 6 5 4 5 5 4 4 4 5 5 6 6 6 6 7 7 8 8 8 8 9 9 9 10 10 11 12 13 14 15 16 16 15 15 15 16 16 17 17 17 16 16 17 17
7 6 6 5 5 5 5 4 5 5 4 4 4 5 5 6 6 6 6 6 7 7 8 8 9 9 9 9 10 10 11 12 13 14 15 15 16 16 15 15 16 16 17 17 17 16 16 17 17
7 6 5 5 5 5 5 5 4 5 5 5 5 5 6 6 6 6 6 6 7 7 8 8 9 9 9 9 10 10 10 11 13 14 15 15 16 16 16 15 16 17 17 17 17 16 16 16 16
6 5 4 4 5 6 6 5 4 5 6 5 5 6 6 6 6 6 6 6 7 7 8 8 9 9 9 9 10 10 10 11 12 13 14 15 16 16 16 16 16 17 17 17 17 16 16 16 16
5 4 4 4 5 6 6 5 5 6 6 6 6 6 6 6 6 6 6 6 7 8 8 8 9 9 9 9 10 10 11 11 12 13 14 15 16 16 16 16 17 17 18 17 17 16 16 16 16
5 5 5 5 5 6 6 6 7 7 7 6 6 5 5 5 5 5 6 6 7 8 8 9 9 9 9 9 9 10 10 11 12 13 14 15 16 16 16 17 17 18 18 17 17 17 16 16 16
5 5 5 5 6 6 7 7 8 8 7 6 6 6 5 5 5 6 6 7 7 8 8 9 9 8 8 9 9 9 10 11 12 13 14 15 16 16 17 17 18 18 18 18 17 17 17 16 17
5 5 5 6 7 7 7 7 8 7 7 6 6 6 6 6 6 6 6 7 7 7 8 8 8 8 8 9 9 9 10 11 11 12 14 15 16 16 17 17 18 18 18 18 18 17 17 17 17
5 5 5 6 7 7 7 7 7 7 7 7 6 7 7 7 7 7 6 6 7 7 7 8 8 9 9 9 9 10 10 11 11 12 13 14 15 16 17 17 18 18 18 18 18 18 17 17 17
5 5 6 6 6 6 6 5 6 7 7 7 7 7 7 7 7 7 7 7 7 7 7 7 8 8 9 9 9 9 10 10 10 11 12 13 14 15 16 17 18 18 18 18 18 18 18 18 17
5 5 6 5 5 5 5 5 5 7 7 7 7 7 8 7 7 7 7 7 7 7 7 7 7 8 8 9 9 9 9 10 10 10 11 12 13 14 15 16 17 18 18 18 18 18 18 18 18
4 5 4 4 4 3 4 4 5 7 7 7 7 7 8 7 7 8 8 7 7 7 7 7 7 7 8 9 9 10 10 10 10 10 10 11 12 13 14 15 16 17 18 18 18 19 19 19 19
3 3 3 2 2 2 3 4 5 6 7 7 7 7 7 7 7 7 7 7 7 7 8 8 8 8 9 9 9 10 10 10 10 10 10 10 11 12 13 14 15 16 17 18 18 19 19 19 19
2 2 1 1 1 2 3 4 5 6 7 7 7 7 6 5 5 6 7 7 7 8 8 8 8 9 9 9 9 10 10 10 10 10 10 10 10 11 12 13 14 15 16 18 18 18 19 19 19
3 2 2 1 1 1 3 4 5 6 6 6 6 5 5 4 4 5 6 6 7 7 7 7 8 9 9 9 9 9 10 9 9 9 9 10 10 10 11 12 13 14 16 17 18 18 18 19 19
3 3 2 2 1 1 2 3 4 5 6 5 5 4 4 4 4 4 5 6 6 7 7 7 7 8 9 9 10 10 10 9 9 8 8 8 9 10 10 11 12 13 14 16 16 17 18 18 19
3 3 2 1 1 1 1 2 4 5 5 5 4 4 4 5 5 5 5 5 6 6 6 6 7 7 8 9 9 10 10 10 9 9 8 8 8 9 9 10 11 12 13 14 15 16 17 17 17
2 2 2 1 1 1 1 2 4 5 5 5 4 4 5 6 6 6 5 5 5 5 6 6 6 7 8 9 9 9 10 10 10 10 9 8 8 8 9 10 11 12 12 13 14 14 15 16 16